Time,TemperatureF,DewpointF,PressureIn,WindDirection,WindDirectionDegrees,WindSpeedMPH,WindSpeedGustMPH,Humidity,HourlyPrecipIn,Conditions,Clouds,dailyrainin,SoftwareType,DateUTC
2013-02-20 00:05:00,22.5,14.8,30.32,NW,325,0.0,0.0,72,0.00,,,0.00,Wunderground v.1.15,2013-02-20 06:05:00,
2013-02-20 00:11:00,23.0,13.7,30.32,North,11,1.0,1.0,67,0.00,,,0.00,Wunderground v.1.15,2013-02-20 06:11:00,
2013-02-20 00:20:00,23.9,12.4,30.33,NE,34,0.0,1.0,61,0.00,,,0.00,Wunderground v.1.15,2013-02-20 06:20:00,
2013-02-20 00:26:00,24.5,11.0,30.33,NE,35,1.0,1.0,56,0.00,,,0.00,Wunderground v.1.15,2013-02-20 06:26:00,
2013-02-20 00:35:00,25.3,10.1,30.33,NNW,336,1.0,3.0,52,0.00,,,0.00,Wunderground v.1.15,2013-02-20 06:35:00,
2013-02-20 00:45:00,25.6,10.0,30.34,NNW,336,0.0,0.0,51,0.00,,,0.00,Wunderground v.1.15,2013-02-20 06:45:00,
2013-02-20 00:51:00,25.4,10.6,30.34,NNW,336,0.0,0.0,53,0.00,,,0.00,Wunderground v.1.15,2013-02-20 06:51:00,
2013-02-20 01:05:00,25.0,11.1,30.34,NNW,336,0.0,0.0,55,0.00,,,0.00,Wunderground v.1.15,2013-02-20 07:05:00,
2013-02-20 01:15:00,24.5,11.0,30.34,NNW,336,0.0,0.0,56,0.00,,,0.00,Wunderground v.1.15,2013-02-20 07:15:00,
2013-02-20 01:25:00,24.1,11.4,30.34,NNW,336,0.0,0.0,58,0.00,,,0.00,Wunderground v.1.15,2013-02-20 07:25:00,
2013-02-20 01:40:00,23.5,11.3,30.34,NNW,336,0.0,0.0,59,0.00,,,0.00,Wunderground v.1.15,2013-02-20 07:40:00,
2013-02-20 01:45:00,23.5,10.9,30.34,NNW,336,0.0,1.0,58,0.00,,,0.00,Wunderground v.1.15,2013-02-20 07:45:00,
2013-02-20 12:27:00,30.3,10.4,30.35,ENE,77,1.0,1.0,43,0.00,,,0.00,Wunderground v.1.15,2013-02-20 18:27:00,
2013-02-20 12:35:00,30.7,11.3,30.33,East,83,1.0,2.0,44,0.00,,,0.00,Wunderground v.1.15,2013-02-20 18:35:00,
2013-02-20 12:50:00,31.8,11.8,30.30,ESE,122,1.0,2.0,43,0.00,,,0.00,Wunderground v.1.15,2013-02-20 18:50:00,
2013-02-20 13:00:00,32.9,12.3,30.30,South,189,2.0,2.0,42,0.00,,,0.00,Wunderground v.1.15,2013-02-20 19:00:00,
2013-02-20 13:10:00,33.5,11.2,30.30,SE,138,1.0,1.0,39,0.00,,,0.00,Wunderground v.1.15,2013-02-20 19:10:00,
2013-02-20 13:20:00,33.8,10.2,30.29,East,99,1.0,1.0,37,0.00,,,0.00,Wunderground v.1.15,2013-02-20 19:20:00,
2013-02-20 13:31:00,33.8,9.0,30.28,SSE,157,1.0,1.0,35,0.00,,,0.00,Wunderground v.1.15,2013-02-20 19:31:00,
2013-02-20 13:40:00,33.8,8.4,30.28,NE,43,1.0,3.0,34,0.00,,,0.00,Wunderground v.1.15,2013-02-20 19:40:00,
2013-02-20 13:51:00,34.1,9.9,30.27,ESE,117,1.0,1.0,36,0.00,,,0.00,Wunderground v.1.15,2013-02-20 19:51:00,
2013-02-20 14:00:00,34.6,9.7,30.27,ENE,78,1.0,1.0,35,0.00,,,0.00,Wunderground v.1.15,2013-02-20 20:00:00,
2013-02-20 14:05:00,34.4,8.2,30.27,ENE,78,1.0,1.0,33,0.00,,,0.00,Wunderground v.1.15,2013-02-20 20:05:00,
2013-02-20 14:15:00,34.4,8.2,30.26,ESE,113,1.0,3.0,33,0.00,,,0.00,Wunderground v.1.15,2013-02-20 20:15:00,
2013-02-20 14:20:00,34.4,8.9,30.26,NE,52,1.0,3.0,34,0.00,,,0.00,Wunderground v.1.15,2013-02-20 20:20:00,
2013-02-20 14:31:00,34.9,9.3,30.24,East,83,1.0,1.0,34,0.00,,,0.00,Wunderground v.1.15,2013-02-20 20:31:00,
2013-02-20 14:40:00,34.7,10.4,30.24,SSE,152,1.0,1.0,36,0.00,,,0.00,Wunderground v.1.15,2013-02-20 20:40:00,
2013-02-20 14:45:00,34.9,10.6,30.25,SSE,152,0.0,0.0,36,0.00,,,0.00,Wunderground v.1.15,2013-02-20 20:45:00,
2013-02-20 14:55:00,34.9,8.7,30.25,ENE,69,1.0,1.0,33,0.00,,,0.00,Wunderground v.1.15,2013-02-20 20:55:00,
2013-02-20 15:06:00,34.9,8.7,30.24,NE,37,2.0,2.0,33,0.00,,,0.00,Wunderground v.1.15,2013-02-20 21:06:00,
2013-02-20 15:15:00,35.0,10.7,30.24,ENE,59,1.0,2.0,36,0.00,,,0.00,Wunderground v.1.15,2013-02-20 21:15:00,
2013-02-20 15:20:00,35.2,8.9,30.24,NNE,30,1.0,1.0,33,0.00,,,0.00,Wunderground v.1.15,2013-02-20 21:20:00,
2013-02-20 15:30:00,35.2,7.5,30.24,NE,50,1.0,3.0,31,0.00,,,0.00,Wunderground v.1.15,2013-02-20 21:30:00,
2013-02-20 15:40:00,35.2,8.2,30.24,NE,38,1.0,1.0,32,0.00,,,0.00,Wunderground v.1.15,2013-02-20 21:40:00,
2013-02-20 15:50:00,34.9,10.0,30.24,NNE,32,1.0,2.0,35,0.00,,,0.00,Wunderground v.1.15,2013-02-20 21:50:00,
2013-02-20 16:00:00,34.7,7.8,30.24,NE,41,1.0,2.0,32,0.00,,,0.00,Wunderground v.1.15,2013-02-20 22:00:00,
2013-02-20 16:10:00,34.7,7.1,30.24,NE,42,1.0,2.0,31,0.00,,,0.00,Wunderground v.1.15,2013-02-20 22:10:00,
2013-02-20 16:20:00,34.7,8.5,30.24,ENE,72,1.0,1.0,33,0.00,,,0.00,Wunderground v.1.15,2013-02-20 22:20:00,
2013-02-20 16:30:00,34.7,9.8,30.23,ESE,105,1.0,3.0,35,0.00,,,0.00,Wunderground v.1.15,2013-02-20 22:30:00,
2013-02-20 16:41:00,34.4,10.2,30.23,NNE,27,1.0,2.0,36,0.00,,,0.00,Wunderground v.1.15,2013-02-20 22:41:00,
2013-02-20 16:55:00,34.1,11.1,30.23,East,84,0.0,0.0,38,0.00,,,0.00,Wunderground v.1.15,2013-02-20 22:55:00,
2013-02-20 17:05:00,34.0,11.0,30.23,East,80,1.0,2.0,38,0.00,,,0.00,Wunderground v.1.15,2013-02-20 23:05:00,
2013-02-20 17:25:00,33.8,9.6,30.22,East,98,1.0,1.0,36,0.00,,,0.00,Wunderground v.1.15,2013-02-20 23:25:00,
2013-02-20 17:35:00,33.7,10.1,30.22,SE,126,1.0,1.0,37,0.00,,,0.00,Wunderground v.1.15,2013-02-20 23:35:00,
2013-02-20 17:50:00,33.5,9.4,30.21,SE,145,2.0,2.0,36,0.00,,,0.00,Wunderground v.1.15,2013-02-20 23:50:00,
2013-02-20 17:55:00,33.5,9.4,30.21,SE,143,3.0,3.0,36,0.00,,,0.00,Wunderground v.1.15,2013-02-20 23:55:00,
2013-02-20 18:05:00,33.4,10.5,30.23,SSE,154,1.0,3.0,38,0.00,,,0.00,Wunderground v.1.15,2013-02-21 00:05:00,
2013-02-20 18:15:00,33.2,9.1,30.22,SE,141,2.0,4.0,36,0.00,,,0.00,Wunderground v.1.15,2013-02-21 00:15:00,
2013-02-20 18:25:00,33.1,10.2,30.22,SSE,152,2.0,2.0,38,0.00,,,0.00,Wunderground v.1.15,2013-02-21 00:25:00,
2013-02-20 18:35:00,33.1,9.0,30.22,ESE,117,2.0,2.0,36,0.00,,,0.00,Wunderground v.1.15,2013-02-21 00:35:00,
2013-02-20 18:45:00,32.8,9.3,30.22,ENE,73,3.0,3.0,37,0.00,,,0.00,Wunderground v.1.15,2013-02-21 00:45:00,
2013-02-20 18:55:00,32.7,9.8,30.22,SSE,155,1.0,1.0,38,0.00,,,0.00,Wunderground v.1.15,2013-02-21 00:55:00,
2013-02-20 19:10:00,32.7,10.4,30.22,SE,128,1.0,1.0,39,0.00,,,0.00,Wunderground v.1.15,2013-02-21 01:10:00,
2013-02-20 19:15:00,32.7,9.8,30.21,SE,128,1.0,1.0,38,0.00,,,0.00,Wunderground v.1.15,2013-02-21 01:15:00,
2013-02-20 19:25:00,32.5,10.3,30.21,East,96,1.0,1.0,39,0.00,,,0.00,Wunderground v.1.15,2013-02-21 01:25:00,
2013-02-20 19:35:00,32.5,10.8,30.20,ENE,78,1.0,2.0,40,0.00,,,0.00,Wunderground v.1.15,2013-02-21 01:35:00,
2013-02-20 19:45:00,32.5,11.4,30.20,East,94,1.0,1.0,41,0.00,,,0.00,Wunderground v.1.15,2013-02-21 01:45:00,
2013-02-20 19:55:00,32.5,11.4,30.20,ENE,72,1.0,1.0,41,0.00,,,0.00,Wunderground v.1.15,2013-02-21 01:55:00,
2013-02-20 20:05:00,32.5,12.5,30.20,ENE,64,0.0,1.0,43,0.00,,,0.00,Wunderground v.1.15,2013-02-21 02:05:00,
2013-02-20 20:15:00,32.5,11.4,30.20,ESE,107,1.0,2.0,41,0.00,,,0.00,Wunderground v.1.15,2013-02-21 02:15:00,
2013-02-20 20:25:00,32.5,11.9,30.20,East,88,1.0,1.0,42,0.00,,,0.00,Wunderground v.1.15,2013-02-21 02:25:00,
2013-02-20 20:35:00,32.5,11.4,30.20,East,80,1.0,1.0,41,0.00,,,0.00,Wunderground v.1.15,2013-02-21 02:35:00,
2013-02-20 21:00:00,32.4,12.4,30.19,East,79,1.0,1.0,43,0.00,,,0.00,Wunderground v.1.15,2013-02-21 03:00:00,
2013-02-20 21:10:00,32.5,11.4,30.19,SE,143,1.0,1.0,41,0.00,,,0.00,Wunderground v.1.15,2013-02-21 03:10:00,
2013-02-20 21:21:00,32.5,10.8,30.20,SE,129,2.0,2.0,40,0.00,,,0.00,Wunderground v.1.15,2013-02-21 03:21:00,
2013-02-20 21:30:00,32.5,11.4,30.19,ESE,119,1.0,2.0,41,0.00,,,0.00,Wunderground v.1.15,2013-02-21 03:30:00,
2013-02-20 21:35:00,32.5,10.8,30.19,SE,137,2.0,5.0,40,0.00,,,0.00,Wunderground v.1.15,2013-02-21 03:35:00,
2013-02-20 21:45:00,32.5,10.8,30.19,SE,139,2.0,2.0,40,0.00,,,0.00,Wunderground v.1.15,2013-02-21 03:45:00,
2013-02-20 21:55:00,32.4,11.3,30.19,East,82,1.0,4.0,41,0.00,,,0.00,Wunderground v.1.15,2013-02-21 03:55:00,
2013-02-20 22:05:00,32.4,11.3,30.19,South,169,1.0,5.0,41,0.00,,,0.00,Wunderground v.1.15,2013-02-21 04:05:00,
2013-02-20 22:15:00,32.4,11.3,30.19,SE,136,1.0,1.0,41,0.00,,,0.00,Wunderground v.1.15,2013-02-21 04:15:00,
2013-02-20 22:25:00,32.4,10.7,30.19,SE,134,1.0,3.0,40,0.00,,,0.00,Wunderground v.1.15,2013-02-21 04:25:00,
2013-02-20 22:36:00,32.2,10.5,30.20,ESE,123,3.0,3.0,40,0.00,,,0.00,Wunderground v.1.15,2013-02-21 04:36:00,